Weather History for Provincetown, MA

Change the Weather History Date:

Thursday, February 21, 2013

  Actual Average Record
Temperature  
Mean Temperature 30 °F -  
Max Temperature 33 °F 36 °F 54 °F (1954)
Min Temperature 26 °F 26 °F 15 °F (2006)
Degree Days  
Heating Degree Days 36    
Moisture  
Dew Point 17 °F    
Average Humidity 60    
Maximum Humidity 75    
Minimum Humidity 47    
Precipitation  
Precipitation 0.00 in - - ()
Sea Level Pressure  
Sea Level Pressure 29.86 in    
Wind  
Wind Speed 21 mph (NW)    
Max Wind Speed 28 mph    
Max Gust Speed 36 mph    
Visibility 10 miles    
Events      
Averages and records for this station are not official NWS values.
T = Trace of Precipitation, MM = Missing Value Source: NWS Daily Summary

Daily Weather History Graph

Daily Weather History Graph

Search for Another Location

Airport:

Trip Planner

Search our weather history database for the weather conditions in past years. The results will help you decide how hot, cold, wet, or windy it might be!

Date:

Astronomy

Feb. 21, 2013 Rise Set
Actual Time 6:28 AM EST 5:21 PM EST
Civil Twilight 5:59 AM EST 5:49 PM EST
Nautical Twilight 5:27 AM EST 6:22 PM EST
Astronomical Twilight 4:54 AM EST 6:54 PM EST
Moon 1:30 PM EST (2/21) 3:33 AM EST (2/21)
Length of Visible Light 11h 50m
Length of Day
10h 53m
Waxing Gibbous, 83% of the Moon is Illuminated
Feb 21
Waxing Gibbous
Feb 25
Full
Mar 4
Last Quarter
Mar 11
New
Mar 19
First Quarter

Hourly Weather History & Observations

Time (EST) Temp. Windchill Dew Point Humidity Pressure Visibility Wind Dir Wind Speed Gust Speed Precip Events Conditions
12:15 AM 28.4 °F 15.4 °F 17.6 °F 64% 29.78 in 10.0 mi West 19.6 mph 29.9 mph N/A   Scattered Clouds
12:35 AM 28.4 °F 14.4 °F 17.6 °F 64% 29.78 in 10.0 mi WNW 23.0 mph 29.9 mph N/A   Partly Cloudy
12:55 AM 28.4 °F 15.8 °F 15.8 °F 59% 29.78 in 10.0 mi WNW 18.4 mph 28.8 mph N/A   Clear
1:35 AM 28.4 °F 15.8 °F 15.8 °F 59% 29.79 in 10.0 mi West 18.4 mph 28.8 mph N/A   Partly Cloudy
1:55 AM 28.4 °F 16.2 °F 15.8 °F 59% 29.79 in 10.0 mi West 17.3 mph 28.8 mph N/A   Mostly Cloudy
2:15 AM 28.4 °F 15.8 °F 15.8 °F 59% 29.79 in 10.0 mi West 18.4 mph 25.3 mph N/A   Scattered Clouds
2:35 AM 28.4 °F 17.0 °F 15.8 °F 59% 29.79 in 10.0 mi West 15.0 mph 26.5 mph N/A   Scattered Clouds
2:55 AM 28.4 °F 15.8 °F 17.6 °F 64% 29.78 in 10.0 mi West 18.4 mph 23.0 mph N/A   Mostly Cloudy
3:15 AM 28.4 °F 15.1 °F 17.6 °F 64% 29.79 in 10.0 mi West 20.7 mph 26.5 mph N/A   Scattered Clouds
3:35 AM 28.4 °F 15.8 °F 17.6 °F 64% 29.78 in 10.0 mi West 18.4 mph 26.5 mph N/A   Partly Cloudy
3:55 AM 28.4 °F 15.8 °F 17.6 °F 64% 29.79 in 10.0 mi West 18.4 mph 27.6 mph N/A   Mostly Cloudy
4:15 AM 28.4 °F 14.7 °F 15.8 °F 59% 29.79 in 10.0 mi West 21.9 mph 28.8 mph N/A   Overcast
4:55 AM 28.4 °F 15.4 °F 15.8 °F 59% 29.80 in 10.0 mi West 19.6 mph 27.6 mph N/A   Scattered Clouds
5:15 AM 28.4 °F 15.8 °F 17.6 °F 64% 29.79 in 10.0 mi West 18.4 mph 27.6 mph N/A   Clear
5:35 AM 28.4 °F 14.4 °F 15.8 °F 59% 29.79 in 10.0 mi West 23.0 mph 27.6 mph N/A   Mostly Cloudy
5:55 AM 28.4 °F 16.2 °F 17.6 °F 64% 29.79 in 10.0 mi West 17.3 mph 28.8 mph N/A   Overcast
6:15 AM 28.4 °F 15.1 °F 17.6 °F 64% 29.80 in 10.0 mi West 20.7 mph 28.8 mph N/A   Overcast
6:55 AM 28.4 °F 14.7 °F 15.8 °F 59% 29.80 in 10.0 mi West 21.9 mph 32.2 mph N/A   Overcast
7:35 AM 28.4 °F 14.1 °F 15.8 °F 59% 29.81 in 10.0 mi West 24.2 mph 33.4 mph N/A   Overcast
7:55 AM 28.4 °F 15.1 °F 14.0 °F 55% 29.81 in 10.0 mi WNW 20.7 mph 29.9 mph N/A   Overcast
8:15 AM 26.6 °F 11.7 °F 14.0 °F 59% 29.81 in 10.0 mi WNW 24.2 mph 32.2 mph N/A   Overcast
8:35 AM 26.6 °F 10.8 °F 12.2 °F 55% 29.81 in 10.0 mi WNW 27.6 mph 35.7 mph N/A   Overcast
8:55 AM 26.6 °F 11.1 °F 12.2 °F 55% 29.80 in 10.0 mi WNW 26.5 mph 33.4 mph N/A   Overcast
9:15 AM 26.6 °F 13.1 °F 12.2 °F 55% 29.80 in 10.0 mi WNW 19.6 mph 32.2 mph N/A   Overcast
9:35 AM 28.4 °F 14.4 °F 12.2 °F 51% 29.80 in 10.0 mi WNW 23.0 mph 28.8 mph N/A   Mostly Cloudy
9:55 AM 28.4 °F 15.1 °F 12.2 °F 51% 29.80 in 10.0 mi WNW 20.7 mph 31.1 mph N/A   Scattered Clouds
10:55 AM 28.4 °F 16.2 °F 14.0 °F 55% 29.81 in 10.0 mi WNW 17.3 mph 27.6 mph N/A   Overcast
11:15 AM 28.4 °F 15.1 °F 14.0 °F 55% 29.81 in 10.0 mi WNW 20.7 mph 28.8 mph N/A   Overcast
11:35 AM 28.4 °F 14.7 °F 12.2 °F 51% 29.81 in 10.0 mi WNW 21.9 mph 29.9 mph N/A   Overcast
11:55 AM 30.2 °F 17.1 °F 15.8 °F 55% 29.80 in 10.0 mi WNW 21.9 mph 28.8 mph N/A   Overcast
12:15 PM 28.4 °F 15.8 °F 12.2 °F 51% 29.80 in 10.0 mi NW 18.4 mph 26.5 mph N/A   Overcast
12:35 PM 30.2 °F 17.4 °F 12.2 °F 47% 29.80 in 10.0 mi NW 20.7 mph 27.6 mph N/A   Overcast
12:55 PM 30.2 °F 16.5 °F 15.8 °F 55% 29.80 in 10.0 mi NW 24.2 mph 28.8 mph N/A   Overcast
1:15 PM 30.2 °F 17.8 °F 15.8 °F 55% 29.79 in 10.0 mi NW 19.6 mph 26.5 mph N/A   Mostly Cloudy
1:55 PM 30.2 °F 18.5 °F 14.0 °F 51% 29.80 in 10.0 mi NW 17.3 mph 25.3 mph N/A   Overcast
2:15 PM 30.2 °F 17.8 °F 14.0 °F 51% 29.81 in 10.0 mi NNW 19.6 mph 26.5 mph N/A   Mostly Cloudy
2:35 PM 30.2 °F 17.1 °F 12.2 °F 47% 29.81 in 10.0 mi NW 21.9 mph 28.8 mph N/A   Mostly Cloudy
2:55 PM 30.2 °F 16.8 °F 14.0 °F 51% 29.81 in 10.0 mi NW 23.0 mph 31.1 mph N/A   Mostly Cloudy
3:15 PM 30.2 °F 17.4 °F 15.8 °F 55% 29.82 in 10.0 mi NW 20.7 mph 27.6 mph N/A   Scattered Clouds
3:35 PM 30.2 °F 17.4 °F 17.6 °F 60% 29.83 in 10.0 mi NW 20.7 mph 26.5 mph N/A   Scattered Clouds
3:55 PM 30.2 °F 18.5 °F 17.6 °F 60% 29.84 in 10.0 mi NW 17.3 mph 26.5 mph N/A   Mostly Cloudy
4:15 PM 30.2 °F 17.4 °F 17.6 °F 60% 29.85 in 10.0 mi NW 20.7 mph 27.6 mph N/A   Scattered Clouds
4:35 PM 30.2 °F 17.4 °F 17.6 °F 60% 29.86 in 10.0 mi NW 20.7 mph 28.8 mph N/A   Mostly Cloudy
4:55 PM 30.2 °F 16.8 °F 15.8 °F 55% 29.87 in 10.0 mi NW 23.0 mph 32.2 mph N/A   Overcast
5:15 PM 30.2 °F 16.5 °F 17.6 °F 60% 29.88 in 10.0 mi NW 24.2 mph 29.9 mph N/A   Overcast
5:35 PM 30.2 °F 15.9 °F 15.8 °F 55% 29.89 in 10.0 mi NW 26.5 mph 32.2 mph N/A   Overcast
5:55 PM 30.2 °F 15.9 °F 15.8 °F 55% 29.91 in 10.0 mi NW 26.5 mph 33.4 mph N/A   Overcast
6:15 PM 30.2 °F 16.2 °F 17.6 °F 60% 29.93 in 10.0 mi NW 25.3 mph 31.1 mph N/A   Overcast
6:35 PM 30.2 °F 16.5 °F 17.6 °F 60% 29.94 in 10.0 mi NW 24.2 mph 32.2 mph N/A   Overcast
6:55 PM 30.2 °F 16.2 °F 19.4 °F 64% 29.95 in 10.0 mi NW 25.3 mph 33.4 mph N/A   Overcast
7:15 PM 30.2 °F 16.5 °F 19.4 °F 64% 29.96 in 10.0 mi NW 24.2 mph 32.2 mph N/A   Overcast
7:55 PM 30.2 °F 16.8 °F 19.4 °F 64% 29.99 in 10.0 mi NW 23.0 mph 32.2 mph N/A   Mostly Cloudy
8:15 PM 30.2 °F 17.1 °F 19.4 °F 64% 30.00 in 10.0 mi NW 21.9 mph 35.7 mph N/A   Overcast
8:35 PM 30.2 °F 15.9 °F 19.4 °F 64% 30.01 in 10.0 mi NW 26.5 mph 35.7 mph N/A   Overcast
8:55 PM 30.2 °F 16.2 °F 19.4 °F 64% 30.02 in 10.0 mi NNW 25.3 mph 34.5 mph N/A   Mostly Cloudy
9:15 PM 30.2 °F 15.9 °F 21.2 °F 69% 30.03 in 10.0 mi NNW 26.5 mph 34.5 mph N/A   Mostly Cloudy
9:35 PM 32.0 °F 18.6 °F 21.2 °F 64% 30.03 in 10.0 mi NW 25.3 mph 33.4 mph N/A   Overcast
10:15 PM 33.8 °F 21.6 °F 24.8 °F 70% 30.05 in 10.0 mi NNW 23.0 mph 35.7 mph N/A   Overcast
10:35 PM 33.8 °F 21.3 °F 24.8 °F 70% 30.06 in 10.0 mi NNW 24.2 mph 32.2 mph N/A   Overcast
10:55 PM 33.8 °F 21.3 °F 24.8 °F 70% 30.06 in 10.0 mi NNW 24.2 mph 31.1 mph N/A   Overcast
11:15 PM 33.8 °F 22.5 °F 26.6 °F 75% 30.07 in 10.0 mi NNW 19.6 mph 29.9 mph N/A   Overcast
11:35 PM 33.8 °F 21.9 °F 26.6 °F 75% 30.09 in 10.0 mi NNW 21.9 mph 29.9 mph N/A   Overcast
11:55 PM 33.8 °F 21.9 °F 26.6 °F 75% 30.10 in 10.0 mi NW 21.9 mph 29.9 mph N/A   Overcast